Time,TemperatureF,DewpointF,PressureIn,WindDirection,WindDirectionDegrees,WindSpeedMPH,WindSpeedGustMPH,Humidity,HourlyPrecipIn,Conditions,Clouds,dailyrainin,SoftwareType,DateUTC
2013-06-06 00:01:00,72.0,71.1,29.94,ENE,74,0.0,0.0,97,0.00,,---,0.00,VWS V14.01,2013-06-06 04:01:00,
2013-06-06 00:02:00,72.0,71.1,29.94,ENE,74,0.0,0.0,97,0.00,,---,0.00,VWS V14.01,2013-06-06 04:02:00,
2013-06-06 00:07:00,71.8,70.9,29.94,ENE,74,0.0,0.0,97,0.00,,---,0.00,VWS V14.01,2013-06-06 04:07:00,
2013-06-06 00:12:00,72.0,71.1,29.94,ENE,74,0.0,0.0,97,0.00,,---,0.00,VWS V14.01,2013-06-06 04:12:00,
2013-06-06 00:17:00,72.0,71.1,29.94,ENE,74,0.0,0.0,97,0.00,,---,0.00,VWS V14.01,2013-06-06 04:17:00,
2013-06-06 00:22:00,72.0,71.1,29.94,ENE,74,0.0,0.0,97,0.00,,---,0.00,VWS V14.01,2013-06-06 04:22:00,
2013-06-06 00:27:00,72.0,71.1,29.94,ENE,74,0.0,0.0,97,0.00,,---,0.00,VWS V14.01,2013-06-06 04:27:00,
2013-06-06 00:32:00,72.0,71.1,29.94,ENE,74,0.0,0.0,97,0.00,,---,0.00,VWS V14.01,2013-06-06 04:32:00,
2013-06-06 00:37:00,72.0,71.1,29.94,ENE,74,0.0,0.0,97,0.00,,---,0.00,VWS V14.01,2013-06-06 04:37:00,
2013-06-06 00:42:00,72.0,71.1,29.94,ENE,74,0.0,0.0,97,0.00,,---,0.00,VWS V14.01,2013-06-06 04:42:00,
2013-06-06 00:47:00,72.0,71.1,29.91,ENE,74,0.0,0.0,97,0.00,,---,0.00,VWS V14.01,2013-06-06 04:47:00,
2013-06-06 00:52:00,72.0,71.4,29.91,ENE,74,0.0,0.0,98,0.00,,---,0.00,VWS V14.01,2013-06-06 04:52:00,
2013-06-06 00:57:00,72.0,71.4,29.91,ENE,74,0.0,0.0,98,0.00,,---,0.00,VWS V14.01,2013-06-06 04:57:00,
2013-06-06 01:02:00,72.1,71.6,29.91,ENE,74,0.0,0.0,98,0.00,,---,0.00,VWS V14.01,2013-06-06 05:02:00,
2013-06-06 01:07:00,72.1,71.6,29.91,ENE,74,0.0,0.0,98,0.00,,---,0.00,VWS V14.01,2013-06-06 05:07:00,
2013-06-06 01:12:00,72.1,71.6,29.91,ENE,74,0.0,0.0,98,0.00,,---,0.00,VWS V14.01,2013-06-06 05:12:00,
2013-06-06 01:17:00,72.1,71.6,29.91,East,79,0.0,0.0,98,0.00,,---,0.00,VWS V14.01,2013-06-06 05:17:00,
2013-06-06 01:22:00,72.3,71.7,29.91,East,79,0.0,0.0,98,0.00,,---,0.00,VWS V14.01,2013-06-06 05:22:00,
2013-06-06 01:27:00,72.3,71.7,29.91,East,79,0.0,0.0,98,0.00,,---,0.00,VWS V14.01,2013-06-06 05:27:00,
2013-06-06 01:32:00,72.3,72.0,29.91,ENE,65,0.0,0.0,99,0.00,,---,0.00,VWS V14.01,2013-06-06 05:32:00,
2013-06-06 01:37:00,72.3,72.0,29.91,NE,55,0.0,0.0,99,0.00,,---,0.00,VWS V14.01,2013-06-06 05:37:00,
2013-06-06 01:42:00,72.5,72.2,29.91,ESE,119,0.0,0.0,99,0.00,,---,0.00,VWS V14.01,2013-06-06 05:42:00,
2013-06-06 01:47:00,72.5,72.2,29.91,ESE,119,0.0,0.0,99,0.00,,---,0.00,VWS V14.01,2013-06-06 05:47:00,
2013-06-06 01:52:00,72.5,72.2,29.91,NE,56,0.0,0.0,99,0.00,,---,0.00,VWS V14.01,2013-06-06 05:52:00,
2013-06-06 01:57:00,72.5,72.5,29.91,NE,56,0.0,0.0,100,0.00,,---,0.00,VWS V14.01,2013-06-06 05:57:00,
2013-06-06 02:02:00,72.7,72.7,29.88,North,357,0.0,0.0,100,0.00,,---,0.00,VWS V14.01,2013-06-06 06:02:00,
2013-06-06 02:07:00,72.7,72.7,29.88,ENE,69,0.0,0.0,100,0.00,,---,0.00,VWS V14.01,2013-06-06 06:07:00,
2013-06-06 02:12:00,72.9,72.9,29.88,ENE,71,0.0,0.0,100,0.00,,---,0.00,VWS V14.01,2013-06-06 06:12:00,
2013-06-06 02:17:00,72.9,72.9,29.88,East,83,0.0,0.0,100,0.00,,---,0.00,VWS V14.01,2013-06-06 06:17:00,
2013-06-06 02:22:00,72.9,72.9,29.88,East,93,0.0,0.0,100,0.00,,---,0.00,VWS V14.01,2013-06-06 06:22:00,
2013-06-06 02:27:00,72.9,72.9,29.88,ENE,66,0.0,0.0,100,0.00,,---,0.00,VWS V14.01,2013-06-06 06:27:00,
2013-06-06 02:32:00,73.0,73.1,29.88,ENE,62,0.0,0.0,100,0.00,,---,0.00,VWS V14.01,2013-06-06 06:32:00,
2013-06-06 02:37:00,73.0,73.1,29.88,ENE,62,0.0,0.0,100,0.00,,---,0.00,VWS V14.01,2013-06-06 06:37:00,
2013-06-06 02:42:00,72.9,72.9,29.88,ENE,62,0.0,0.0,100,0.00,,---,0.00,VWS V14.01,2013-06-06 06:42:00,
2013-06-06 02:47:00,73.0,73.1,29.88,NNE,13,0.0,0.0,100,0.00,,---,0.00,VWS V14.01,2013-06-06 06:47:00,
2013-06-06 02:52:00,73.0,73.1,29.88,NNE,13,0.0,0.0,100,0.00,,---,0.00,VWS V14.01,2013-06-06 06:52:00,
2013-06-06 02:57:00,73.0,73.1,29.88,ENE,57,0.0,0.0,100,0.00,,---,0.00,VWS V14.01,2013-06-06 06:57:00,
2013-06-06 03:02:00,73.0,73.1,29.88,NE,36,0.0,0.0,100,0.00,,---,0.00,VWS V14.01,2013-06-06 07:02:00,
2013-06-06 03:07:00,73.2,73.2,29.88,ENE,66,0.0,0.0,100,0.00,,---,0.00,VWS V14.01,2013-06-06 07:07:00,
2013-06-06 03:12:00,73.2,73.2,29.88,ENE,66,0.0,0.0,100,0.00,,---,0.00,VWS V14.01,2013-06-06 07:12:00,
2013-06-06 03:17:00,73.2,73.2,29.88,ENE,66,0.0,0.0,100,0.00,,---,0.00,VWS V14.01,2013-06-06 07:17:00,
2013-06-06 03:22:00,73.2,73.2,29.88,NE,52,0.0,0.0,100,0.00,,---,0.00,VWS V14.01,2013-06-06 07:22:00,
2013-06-06 03:27:00,73.2,73.2,29.88,NE,52,0.0,0.0,100,0.00,,---,0.00,VWS V14.01,2013-06-06 07:27:00,
2013-06-06 03:32:00,73.4,73.4,29.85,NE,52,0.0,0.0,100,0.00,,---,0.00,VWS V14.01,2013-06-06 07:32:00,
2013-06-06 03:37:00,73.4,73.4,29.85,NE,52,0.0,0.0,100,0.00,,---,0.00,VWS V14.01,2013-06-06 07:37:00,
2013-06-06 03:42:00,73.4,73.4,29.85,NE,52,0.0,0.0,100,0.00,,---,0.00,VWS V14.01,2013-06-06 07:42:00,
2013-06-06 03:47:00,73.4,73.4,29.85,NE,50,0.0,0.0,100,0.00,,---,0.00,VWS V14.01,2013-06-06 07:47:00,
2013-06-06 03:52:00,73.4,73.4,29.85,NE,50,0.0,0.0,100,0.00,,---,0.00,VWS V14.01,2013-06-06 07:52:00,
2013-06-06 03:57:00,73.4,73.4,29.85,East,91,0.0,0.0,100,0.00,,---,0.00,VWS V14.01,2013-06-06 07:57:00,
2013-06-06 04:02:00,73.4,73.4,29.85,East,83,0.0,0.0,100,0.00,,---,0.00,VWS V14.01,2013-06-06 08:02:00,
2013-06-06 04:07:00,73.6,73.6,29.85,East,83,0.0,0.0,100,0.00,,---,0.00,VWS V14.01,2013-06-06 08:07:00,
2013-06-06 04:12:00,73.6,73.6,29.85,ENE,60,0.0,0.0,100,0.00,,---,0.00,VWS V14.01,2013-06-06 08:12:00,
2013-06-06 04:17:00,73.6,73.6,29.85,ENE,60,0.0,0.0,100,0.00,,---,0.00,VWS V14.01,2013-06-06 08:17:00,
2013-06-06 04:22:00,73.6,73.6,29.85,ENE,60,0.0,0.0,100,0.00,,---,0.00,VWS V14.01,2013-06-06 08:22:00,
2013-06-06 04:27:00,73.6,73.6,29.85,ENE,60,0.0,0.0,100,0.00,,---,0.00,VWS V14.01,2013-06-06 08:27:00,
2013-06-06 04:32:00,73.6,73.6,29.85,ENE,60,0.0,0.0,100,0.00,,---,0.00,VWS V14.01,2013-06-06 08:32:00,
2013-06-06 04:37:00,73.6,73.6,29.85,ENE,57,0.0,0.0,100,0.00,,---,0.00,VWS V14.01,2013-06-06 08:37:00,
2013-06-06 04:42:00,73.6,73.6,29.85,NE,48,0.0,0.0,100,0.00,,---,0.00,VWS V14.01,2013-06-06 08:42:00,
2013-06-06 04:47:00,73.6,73.6,29.85,NE,48,0.0,0.0,100,0.00,,---,0.00,VWS V14.01,2013-06-06 08:47:00,
2013-06-06 04:52:00,73.6,73.6,29.85,NE,48,0.0,0.0,100,0.04,,---,0.04,VWS V14.01,2013-06-06 08:52:00,
2013-06-06 04:57:00,73.6,73.6,29.85,NE,48,0.0,0.0,100,0.04,,---,0.04,VWS V14.01,2013-06-06 08:57:00,
2013-06-06 05:02:00,73.6,73.6,29.85,NE,48,0.0,0.0,100,0.04,,---,0.04,VWS V14.01,2013-06-06 09:02:00,
2013-06-06 05:07:00,73.8,73.8,29.85,NE,48,0.0,0.0,100,0.04,,---,0.04,VWS V14.01,2013-06-06 09:07:00,
2013-06-06 05:12:00,73.8,73.8,29.85,North,2,0.0,0.0,100,0.04,,---,0.04,VWS V14.01,2013-06-06 09:12:00,
2013-06-06 05:17:00,73.8,73.8,29.85,North,5,0.0,0.0,100,0.04,,---,0.04,VWS V14.01,2013-06-06 09:17:00,
2013-06-06 05:22:00,73.8,73.8,29.85,North,5,0.0,0.0,100,0.04,,---,0.04,VWS V14.01,2013-06-06 09:22:00,
2013-06-06 05:27:00,73.8,73.8,29.85,NE,44,0.0,0.0,100,0.08,,---,0.08,VWS V14.01,2013-06-06 09:27:00,
2013-06-06 05:32:00,73.9,73.9,29.83,ENE,70,0.0,0.0,100,0.08,,---,0.08,VWS V14.01,2013-06-06 09:32:00,
2013-06-06 05:37:00,73.9,73.9,29.83,ENE,58,0.0,0.0,100,0.08,,---,0.08,VWS V14.01,2013-06-06 09:37:00,
2013-06-06 05:42:00,73.9,73.9,29.83,NE,35,0.0,0.0,100,0.08,,---,0.08,VWS V14.01,2013-06-06 09:42:00,
2013-06-06 05:47:00,74.1,74.1,29.83,ENE,61,0.0,0.0,100,0.08,,---,0.08,VWS V14.01,2013-06-06 09:47:00,
2013-06-06 05:52:00,74.1,74.1,29.83,ENE,61,0.0,0.0,100,0.04,,---,0.08,VWS V14.01,2013-06-06 09:52:00,
2013-06-06 05:57:00,74.1,74.1,29.83,NE,51,0.0,0.0,100,0.04,,---,0.08,VWS V14.01,2013-06-06 09:57:00,
2013-06-06 06:02:00,74.1,74.1,29.83,NE,52,0.0,0.0,100,0.04,,---,0.08,VWS V14.01,2013-06-06 10:02:00,
2013-06-06 06:07:00,74.1,74.1,29.83,SE,127,0.0,0.0,100,0.04,,---,0.08,VWS V14.01,2013-06-06 10:07:00,
2013-06-06 06:12:00,74.1,74.1,29.83,SE,126,0.0,0.0,100,0.04,,---,0.08,VWS V14.01,2013-06-06 10:12:00,
2013-06-06 06:17:00,74.1,74.1,29.83,NNE,23,0.0,0.0,100,0.04,,---,0.08,VWS V14.01,2013-06-06 10:17:00,
2013-06-06 06:22:00,73.9,73.9,29.83,NE,52,0.0,0.0,100,0.04,,---,0.08,VWS V14.01,2013-06-06 10:22:00,
2013-06-06 06:27:00,73.9,73.9,29.83,ENE,72,0.0,0.0,100,0.04,,---,0.08,VWS V14.01,2013-06-06 10:27:00,
2013-06-06 06:32:00,73.9,73.9,29.83,ENE,72,0.0,0.0,100,0.00,,---,0.08,VWS V14.01,2013-06-06 10:32:00,
2013-06-06 06:37:00,73.9,73.9,29.83,SSW,196,0.0,0.0,100,0.04,,---,0.12,VWS V14.01,2013-06-06 10:37:00,
2013-06-06 06:42:00,73.9,73.9,29.83,NNE,31,0.0,0.0,100,0.04,,---,0.12,VWS V14.01,2013-06-06 10:42:00,
2013-06-06 06:47:00,73.9,73.9,29.83,East,101,3.1,3.1,100,0.04,,---,0.12,VWS V14.01,2013-06-06 10:47:00,
2013-06-06 06:52:00,73.8,73.8,29.83,SSW,197,0.0,0.0,100,0.04,,---,0.12,VWS V14.01,2013-06-06 10:52:00,
2013-06-06 06:57:00,73.6,73.6,29.83,South,189,4.0,5.4,100,0.04,,---,0.12,VWS V14.01,2013-06-06 10:57:00,
2013-06-06 07:02:00,73.2,73.2,29.83,ENE,62,0.0,0.0,100,0.04,,---,0.12,VWS V14.01,2013-06-06 11:02:00,
2013-06-06 07:07:00,73.0,73.1,29.83,ENE,71,4.0,4.0,100,0.04,,---,0.12,VWS V14.01,2013-06-06 11:07:00,
2013-06-06 07:12:00,72.9,72.9,29.83,East,96,0.0,0.0,100,0.04,,---,0.12,VWS V14.01,2013-06-06 11:12:00,
2013-06-06 07:17:00,72.7,72.7,29.83,SSE,168,0.0,0.0,100,0.04,,---,0.12,VWS V14.01,2013-06-06 11:17:00,
2013-06-06 07:22:00,72.7,72.7,29.83,NNE,27,0.0,0.0,100,0.04,,---,0.12,VWS V14.01,2013-06-06 11:22:00,
2013-06-06 07:27:00,72.7,72.7,29.83,NE,45,0.0,0.0,100,0.04,,---,0.12,VWS V14.01,2013-06-06 11:27:00,
2013-06-06 07:32:00,73.0,73.1,29.83,NE,44,0.0,0.0,100,0.04,,---,0.12,VWS V14.01,2013-06-06 11:32:00,
2013-06-06 07:37:00,73.0,73.1,29.83,NW,318,0.0,0.0,100,0.00,,---,0.12,VWS V14.01,2013-06-06 11:37:00,
2013-06-06 07:42:00,73.2,73.2,29.83,East,91,2.7,4.0,100,0.00,,---,0.12,VWS V14.01,2013-06-06 11:42:00,
2013-06-06 07:47:00,73.2,73.2,29.83,NE,46,0.0,0.0,100,0.00,,---,0.12,VWS V14.01,2013-06-06 11:47:00,
2013-06-06 07:52:00,73.2,73.2,29.83,ESE,119,0.0,0.0,100,0.00,,---,0.12,VWS V14.01,2013-06-06 11:52:00,
2013-06-06 07:57:00,73.2,73.2,29.83,SSE,163,0.0,0.0,100,0.00,,---,0.12,VWS V14.01,2013-06-06 11:57:00,
2013-06-06 08:02:00,73.0,73.1,29.83,WNW,289,0.0,0.0,100,0.00,,---,0.12,VWS V14.01,2013-06-06 12:02:00,
2013-06-06 08:07:00,73.0,73.1,29.83,ENE,61,0.0,0.0,100,0.00,,---,0.12,VWS V14.01,2013-06-06 12:07:00,
2013-06-06 08:12:00,73.0,73.1,29.83,ENE,77,0.0,2.2,100,0.00,,---,0.12,VWS V14.01,2013-06-06 12:12:00,
2013-06-06 08:17:00,73.0,73.1,29.83,South,178,3.1,3.1,100,0.00,,---,0.12,VWS V14.01,2013-06-06 12:17:00,
2013-06-06 08:22:00,73.0,73.1,29.83,NE,50,3.1,3.1,100,0.00,,---,0.12,VWS V14.01,2013-06-06 12:22:00,
2013-06-06 08:27:00,72.9,72.9,29.83,NE,52,0.0,3.6,100,0.00,,---,0.12,VWS V14.01,2013-06-06 12:27:00,
2013-06-06 08:32:00,72.9,72.9,29.83,NE,43,0.0,2.7,100,0.00,,---,0.12,VWS V14.01,2013-06-06 12:32:00,
2013-06-06 08:37:00,72.7,72.7,29.83,NE,38,0.0,0.0,100,0.00,,---,0.12,VWS V14.01,2013-06-06 12:37:00,
2013-06-06 08:42:00,72.5,72.5,29.83,East,84,2.7,5.8,100,0.04,,---,0.16,VWS V14.01,2013-06-06 12:42:00,
2013-06-06 08:47:00,72.3,72.3,29.83,NNE,33,2.7,3.1,100,0.04,,---,0.16,VWS V14.01,2013-06-06 12:47:00,
2013-06-06 08:53:00,72.1,72.2,29.83,SW,220,0.0,0.0,100,0.04,,---,0.16,VWS V14.01,2013-06-06 12:53:00,
2013-06-06 08:58:00,72.1,72.2,29.83,SSW,206,0.0,0.0,100,0.08,,---,0.20,VWS V14.01,2013-06-06 12:58:00,
2013-06-06 09:03:00,72.0,72.0,29.83,ENE,60,0.0,2.7,100,0.08,,---,0.20,VWS V14.01,2013-06-06 13:03:00,
2013-06-06 09:08:00,72.0,72.0,29.83,East,92,0.0,0.0,100,0.12,,---,0.24,VWS V14.01,2013-06-06 13:08:00,
2013-06-06 09:13:00,72.0,72.0,29.83,SSE,158,0.0,0.0,100,0.16,,---,0.28,VWS V14.01,2013-06-06 13:13:00,
2013-06-06 09:18:00,72.0,72.0,29.83,North,353,0.0,0.0,100,0.16,,---,0.28,VWS V14.01,2013-06-06 13:18:00,
2013-06-06 09:23:00,72.1,72.2,29.83,SW,215,3.6,4.9,100,0.20,,---,0.31,VWS V14.01,2013-06-06 13:23:00,
2013-06-06 09:28:00,72.1,72.2,29.83,ENE,63,3.1,3.1,100,0.20,,---,0.31,VWS V14.01,2013-06-06 13:28:00,
2013-06-06 09:33:00,72.0,72.0,29.83,East,88,2.2,4.9,100,0.20,,---,0.31,VWS V14.01,2013-06-06 13:33:00,
2013-06-06 09:38:00,72.0,72.0,29.83,ESE,106,0.0,3.1,100,0.24,,---,0.35,VWS V14.01,2013-06-06 13:38:00,
2013-06-06 09:43:00,71.8,71.8,29.83,NE,55,2.7,2.7,100,0.24,,---,0.39,VWS V14.01,2013-06-06 13:43:00,
2013-06-06 09:48:00,71.8,71.8,29.83,NE,43,3.6,10.5,100,0.24,,---,0.39,VWS V14.01,2013-06-06 13:48:00,
2013-06-06 09:53:00,71.8,71.8,29.83,ENE,58,0.0,6.3,100,0.28,,---,0.43,VWS V14.01,2013-06-06 13:53:00,
2013-06-06 09:58:00,71.8,71.8,29.83,NNW,341,2.7,3.1,100,0.24,,---,0.43,VWS V14.01,2013-06-06 13:58:00,
2013-06-06 10:03:00,71.8,71.8,29.83,SSW,207,4.0,5.8,100,0.24,,---,0.43,VWS V14.01,2013-06-06 14:03:00,
2013-06-06 10:08:00,71.8,71.8,29.83,East,93,8.1,8.7,100,0.20,,---,0.43,VWS V14.01,2013-06-06 14:08:00,
2013-06-06 10:13:00,71.8,71.8,29.83,SW,218,2.2,2.7,100,0.24,,---,0.47,VWS V14.01,2013-06-06 14:13:00,
2013-06-06 10:18:00,71.8,71.8,29.80,North,7,4.9,4.9,100,0.20,,---,0.47,VWS V14.01,2013-06-06 14:18:00,
2013-06-06 10:23:00,71.8,71.8,29.80,NE,42,10.1,10.1,100,0.16,,---,0.47,VWS V14.01,2013-06-06 14:23:00,
2013-06-06 10:28:00,71.8,71.8,29.80,NE,56,3.1,5.4,100,0.16,,---,0.47,VWS V14.01,2013-06-06 14:28:00,
2013-06-06 10:33:00,71.8,71.8,29.80,SE,126,7.2,8.7,100,0.16,,---,0.47,VWS V14.01,2013-06-06 14:33:00,
2013-06-06 10:38:00,71.8,71.8,29.80,NNE,27,0.0,0.0,100,0.12,,---,0.47,VWS V14.01,2013-06-06 14:38:00,
2013-06-06 10:43:00,72.0,72.0,29.80,East,92,2.2,2.2,100,0.08,,---,0.47,VWS V14.01,2013-06-06 14:43:00,
2013-06-06 10:48:00,72.0,72.0,29.80,NE,51,3.6,5.4,100,0.12,,---,0.51,VWS V14.01,2013-06-06 14:48:00,
2013-06-06 10:53:00,72.0,72.0,29.80,NE,52,3.6,3.6,100,0.08,,---,0.51,VWS V14.01,2013-06-06 14:53:00,
2013-06-06 10:58:00,72.1,72.2,29.80,NNE,25,2.7,3.6,100,0.08,,---,0.51,VWS V14.01,2013-06-06 14:58:00,
2013-06-06 11:03:00,72.1,72.2,29.80,NE,56,3.1,4.0,100,0.08,,---,0.51,VWS V14.01,2013-06-06 15:03:00,
2013-06-06 11:08:00,72.1,72.2,29.80,SE,142,6.3,6.3,100,0.08,,---,0.51,VWS V14.01,2013-06-06 15:08:00,
2013-06-06 11:13:00,72.1,72.2,29.80,South,189,0.0,2.7,100,0.12,,---,0.59,VWS V14.01,2013-06-06 15:13:00,
2013-06-06 11:18:00,72.1,72.2,29.77,NNE,24,2.7,3.6,100,0.12,,---,0.59,VWS V14.01,2013-06-06 15:18:00,
2013-06-06 11:23:00,72.1,72.2,29.77,SE,126,5.8,5.8,100,0.16,,---,0.63,VWS V14.01,2013-06-06 15:23:00,
2013-06-06 11:28:00,72.1,72.2,29.77,SE,142,4.9,4.9,100,0.24,,---,0.71,VWS V14.01,2013-06-06 15:28:00,
2013-06-06 11:33:00,72.1,72.2,29.80,NE,53,3.6,3.6,100,0.28,,---,0.75,VWS V14.01,2013-06-06 15:33:00,
2013-06-06 11:38:00,72.1,72.2,29.80,WSW,249,5.4,5.4,100,0.28,,---,0.75,VWS V14.01,2013-06-06 15:38:00,
2013-06-06 11:43:00,72.1,72.2,29.80,SSW,196,3.6,3.6,100,0.31,,---,0.79,VWS V14.01,2013-06-06 15:43:00,
2013-06-06 11:48:00,72.3,72.3,29.77,ENE,59,0.0,0.0,100,0.28,,---,0.79,VWS V14.01,2013-06-06 15:48:00,
2013-06-06 11:53:00,72.3,72.3,29.77,ENE,78,3.6,3.6,100,0.31,,---,0.83,VWS V14.01,2013-06-06 15:53:00,
2013-06-06 11:58:00,72.1,72.2,29.77,North,0,2.7,2.7,100,0.31,,---,0.83,VWS V14.01,2013-06-06 15:58:00,
2013-06-06 12:03:00,72.3,72.3,29.77,NE,41,5.4,5.4,100,0.31,,---,0.83,VWS V14.01,2013-06-06 16:03:00,
2013-06-06 12:08:00,72.3,72.3,29.77,ENE,73,2.7,2.7,100,0.31,,---,0.83,VWS V14.01,2013-06-06 16:08:00,
2013-06-06 12:13:00,72.5,72.5,29.77,North,2,2.2,2.2,100,0.28,,---,0.87,VWS V14.01,2013-06-06 16:13:00,
2013-06-06 12:18:00,72.5,72.5,29.77,ESE,107,0.0,0.0,100,0.28,,---,0.87,VWS V14.01,2013-06-06 16:18:00,
2013-06-06 12:23:00,72.5,72.5,29.77,NE,55,3.1,5.4,100,0.24,,---,0.87,VWS V14.01,2013-06-06 16:23:00,
2013-06-06 12:28:00,72.5,72.5,29.77,NE,53,2.7,3.1,100,0.20,,---,0.91,VWS V14.01,2013-06-06 16:28:00,
2013-06-06 12:33:00,72.7,72.7,29.77,NNE,13,2.2,6.7,100,0.16,,---,0.91,VWS V14.01,2013-06-06 16:33:00,
2013-06-06 12:38:00,72.7,72.7,29.77,NE,34,2.7,2.7,100,0.16,,---,0.91,VWS V14.01,2013-06-06 16:38:00,
2013-06-06 12:43:00,72.9,72.9,29.77,NE,54,4.0,4.0,100,0.12,,---,0.91,VWS V14.01,2013-06-06 16:43:00,
2013-06-06 12:48:00,73.0,73.1,29.74,NNE,14,0.0,4.0,100,0.12,,---,0.91,VWS V14.01,2013-06-06 16:48:00,
2013-06-06 12:53:00,73.2,73.2,29.74,NE,42,6.3,6.3,100,0.08,,---,0.91,VWS V14.01,2013-06-06 16:53:00,
2013-06-06 12:58:00,73.4,73.4,29.74,North,10,3.6,5.8,100,0.08,,---,0.91,VWS V14.01,2013-06-06 16:58:00,
2013-06-06 13:03:00,73.4,73.4,29.74,SSW,203,4.0,4.0,100,0.08,,---,0.91,VWS V14.01,2013-06-06 17:03:00,
2013-06-06 13:08:00,73.6,73.6,29.74,NE,54,3.6,4.9,100,0.08,,---,0.91,VWS V14.01,2013-06-06 17:08:00,
2013-06-06 13:13:00,73.6,73.6,29.74,ENE,68,2.7,2.7,100,0.04,,---,0.91,VWS V14.01,2013-06-06 17:13:00,
2013-06-06 13:18:00,73.6,73.6,29.74,NE,46,2.7,2.7,100,0.08,,---,0.94,VWS V14.01,2013-06-06 17:18:00,
2013-06-06 13:23:00,73.6,73.6,29.74,SE,141,0.0,0.0,100,0.12,,---,0.98,VWS V14.01,2013-06-06 17:23:00,
2013-06-06 13:28:00,73.6,73.6,29.74,ENE,72,2.2,2.2,100,0.12,,---,1.02,VWS V14.01,2013-06-06 17:28:00,
2013-06-06 13:33:00,73.8,73.8,29.74,NNE,16,4.0,5.8,100,0.12,,---,1.02,VWS V14.01,2013-06-06 17:33:00,
2013-06-06 13:38:00,73.6,73.6,29.74,NNW,332,0.0,0.0,100,0.12,,---,1.02,VWS V14.01,2013-06-06 17:38:00,
2013-06-06 13:43:00,73.8,73.8,29.74,NE,47,0.0,2.2,100,0.12,,---,1.02,VWS V14.01,2013-06-06 17:43:00,
2013-06-06 13:48:00,73.8,73.8,29.71,NNE,16,0.0,0.0,100,0.12,,---,1.02,VWS V14.01,2013-06-06 17:48:00,
2013-06-06 13:53:00,73.8,73.8,29.71,East,87,0.0,3.6,100,0.16,,---,1.06,VWS V14.01,2013-06-06 17:53:00,
2013-06-06 13:58:00,73.8,73.8,29.71,NNE,24,0.0,0.0,100,0.16,,---,1.06,VWS V14.01,2013-06-06 17:58:00,
2013-06-06 14:03:00,73.9,73.9,29.71,East,90,0.0,0.0,100,0.20,,---,1.10,VWS V14.01,2013-06-06 18:03:00,
2013-06-06 14:08:00,73.9,73.9,29.71,ENE,59,2.7,2.7,100,0.20,,---,1.10,VWS V14.01,2013-06-06 18:08:00,
2013-06-06 14:13:00,74.1,74.1,29.71,ENE,57,0.0,0.0,100,0.20,,---,1.10,VWS V14.01,2013-06-06 18:13:00,
2013-06-06 14:18:00,74.1,74.1,29.71,North,0,3.1,3.1,100,0.20,,---,1.14,VWS V14.01,2013-06-06 18:18:00,
2013-06-06 14:23:00,74.3,74.3,29.71,NE,52,3.1,3.1,100,0.16,,---,1.14,VWS V14.01,2013-06-06 18:23:00,
2013-06-06 14:28:00,74.3,74.3,29.71,NE,43,2.7,2.7,100,0.16,,---,1.18,VWS V14.01,2013-06-06 18:28:00,
2013-06-06 14:33:00,74.3,74.3,29.68,NNE,29,4.0,6.3,100,0.20,,---,1.22,VWS V14.01,2013-06-06 18:33:00,
2013-06-06 14:38:00,74.3,74.3,29.68,NE,54,0.0,0.0,100,0.20,,---,1.22,VWS V14.01,2013-06-06 18:38:00,
2013-06-06 14:43:00,74.3,74.3,29.68,ENE,64,0.0,2.7,100,0.28,,---,1.30,VWS V14.01,2013-06-06 18:43:00,
2013-06-06 14:48:00,74.3,74.3,29.68,NE,35,3.1,3.1,100,0.35,,---,1.38,VWS V14.01,2013-06-06 18:48:00,
2013-06-06 14:53:00,74.5,74.5,29.68,ENE,78,4.9,4.9,100,0.31,,---,1.38,VWS V14.01,2013-06-06 18:53:00,
2013-06-06 14:58:00,74.5,74.5,29.68,SSW,207,4.0,4.0,100,0.31,,---,1.38,VWS V14.01,2013-06-06 18:58:00,
2013-06-06 15:03:00,74.7,74.7,29.65,SE,135,6.3,6.3,100,0.28,,---,1.38,VWS V14.01,2013-06-06 19:03:00,
2013-06-06 15:08:00,74.8,74.8,29.65,South,188,3.6,3.6,100,0.28,,---,1.38,VWS V14.01,2013-06-06 19:08:00,
2013-06-06 15:13:00,75.0,75.0,29.65,North,0,2.2,3.1,100,0.28,,---,1.38,VWS V14.01,2013-06-06 19:13:00,
2013-06-06 15:18:00,75.4,75.4,29.65,SE,132,2.2,3.1,100,0.24,,---,1.38,VWS V14.01,2013-06-06 19:18:00,
2013-06-06 15:23:00,75.4,75.4,29.65,East,94,3.1,5.8,100,0.24,,---,1.38,VWS V14.01,2013-06-06 19:23:00,
2013-06-06 15:28:00,75.4,75.4,29.65,South,185,0.0,0.0,100,0.20,,---,1.38,VWS V14.01,2013-06-06 19:28:00,
2013-06-06 15:33:00,75.4,75.4,29.65,East,90,0.0,0.0,100,0.16,,---,1.38,VWS V14.01,2013-06-06 19:33:00,
2013-06-06 15:34:00,75.4,75.4,29.65,SE,142,2.7,2.7,100,0.16,,---,1.38,VWS V14.01,2013-06-06 19:34:00,
2013-06-06 15:39:00,75.4,75.4,29.65,ENE,74,0.0,0.0,100,0.12,,---,1.38,VWS V14.01,2013-06-06 19:39:00,
2013-06-06 15:44:00,75.6,75.6,29.62,ENE,77,3.1,3.1,100,0.08,,---,1.38,VWS V14.01,2013-06-06 19:44:00,
2013-06-06 15:49:00,75.7,75.8,29.62,ENE,64,0.0,3.1,100,0.00,,---,1.38,VWS V14.01,2013-06-06 19:49:00,
2013-06-06 15:54:00,76.1,76.1,29.62,NNE,33,2.7,2.7,100,0.00,,---,1.38,VWS V14.01,2013-06-06 19:54:00,
2013-06-06 15:59:00,76.5,76.5,29.62,ENE,67,0.0,0.0,100,0.00,,---,1.38,VWS V14.01,2013-06-06 19:59:00,
2013-06-06 16:04:00,77.0,77.0,29.62,South,185,2.2,5.8,100,0.00,,---,1.38,VWS V14.01,2013-06-06 20:04:00,
2013-06-06 16:09:00,76.8,76.8,29.62,South,175,0.0,2.7,100,0.00,,---,1.38,VWS V14.01,2013-06-06 20:09:00,
2013-06-06 16:14:00,76.5,76.5,29.62,SSE,149,4.9,4.9,100,0.00,,---,1.38,VWS V14.01,2013-06-06 20:14:00,
2013-06-06 16:19:00,76.5,76.5,29.62,East,84,0.0,0.0,100,0.00,,---,1.38,VWS V14.01,2013-06-06 20:19:00,
2013-06-06 16:24:00,76.3,76.3,29.62,West,264,2.2,5.8,100,0.00,,---,1.38,VWS V14.01,2013-06-06 20:24:00,
2013-06-06 16:29:00,76.5,76.5,29.62,NE,34,0.0,0.0,100,0.00,,---,1.38,VWS V14.01,2013-06-06 20:29:00,
2013-06-06 16:34:00,76.8,76.8,29.62,SSW,193,2.2,2.7,100,0.00,,---,1.38,VWS V14.01,2013-06-06 20:34:00,
2013-06-06 16:39:00,77.0,77.0,29.62,East,80,5.8,5.8,100,0.00,,---,1.38,VWS V14.01,2013-06-06 20:39:00,
2013-06-06 16:44:00,77.4,77.4,29.59,SSE,153,6.3,6.3,100,0.00,,---,1.38,VWS V14.01,2013-06-06 20:44:00,
2013-06-06 16:49:00,77.4,77.4,29.59,ESE,106,2.2,5.8,100,0.00,,---,1.38,VWS V14.01,2013-06-06 20:49:00,
2013-06-06 16:54:00,77.0,77.0,29.59,SW,222,5.4,5.4,100,0.00,,---,1.38,VWS V14.01,2013-06-06 20:54:00,
2013-06-06 16:59:00,76.6,76.7,29.59,SSE,155,5.4,5.4,100,0.08,,---,1.46,VWS V14.01,2013-06-06 20:59:00,
2013-06-06 17:04:00,76.1,76.1,29.59,East,92,6.3,6.3,100,0.08,,---,1.46,VWS V14.01,2013-06-06 21:04:00,
2013-06-06 17:09:00,76.1,76.1,29.59,South,180,2.7,2.7,100,0.08,,---,1.46,VWS V14.01,2013-06-06 21:09:00,
2013-06-06 17:14:00,76.3,76.3,29.59,SSW,204,0.0,3.1,100,0.08,,---,1.46,VWS V14.01,2013-06-06 21:14:00,
2013-06-06 17:19:00,76.5,76.5,29.59,ENE,73,2.2,3.6,100,0.08,,---,1.46,VWS V14.01,2013-06-06 21:19:00,
2013-06-06 17:24:00,76.6,76.7,29.59,ENE,57,0.0,2.2,100,0.08,,---,1.46,VWS V14.01,2013-06-06 21:24:00,
2013-06-06 17:29:00,76.8,76.8,29.59,ENE,74,5.8,5.8,100,0.08,,---,1.46,VWS V14.01,2013-06-06 21:29:00,
2013-06-06 17:34:00,76.8,76.8,29.59,SW,228,2.2,3.6,100,0.08,,---,1.46,VWS V14.01,2013-06-06 21:34:00,
2013-06-06 17:39:00,76.6,76.7,29.59,SW,230,4.0,8.7,100,0.08,,---,1.46,VWS V14.01,2013-06-06 21:39:00,
2013-06-06 17:44:00,76.6,75.7,29.59,SSW,199,3.6,3.6,97,0.08,,---,1.46,VWS V14.01,2013-06-06 21:44:00,
2013-06-06 17:49:00,76.6,74.5,29.59,ESE,109,4.9,4.9,93,0.08,,---,1.46,VWS V14.01,2013-06-06 21:49:00,
2013-06-06 17:54:00,76.8,75.3,29.59,South,169,2.7,2.7,95,0.08,,---,1.46,VWS V14.01,2013-06-06 21:54:00,
2013-06-06 17:59:00,77.0,74.8,29.59,SE,130,3.1,5.4,93,0.00,,---,1.46,VWS V14.01,2013-06-06 21:59:00,
2013-06-06 18:04:00,76.5,73.3,29.56,SE,124,7.2,7.2,90,0.00,,---,1.46,VWS V14.01,2013-06-06 22:04:00,
2013-06-06 18:09:00,76.3,72.8,29.56,ENE,61,0.0,2.7,89,0.00,,---,1.46,VWS V14.01,2013-06-06 22:09:00,
2013-06-06 18:14:00,76.5,73.3,29.59,SW,230,0.0,4.0,90,0.00,,---,1.46,VWS V14.01,2013-06-06 22:14:00,
2013-06-06 18:19:00,76.3,72.8,29.59,SE,133,4.0,6.3,89,0.00,,---,1.46,VWS V14.01,2013-06-06 22:19:00,
2013-06-06 18:24:00,75.6,71.8,29.59,SSW,213,5.4,5.8,88,0.00,,---,1.46,VWS V14.01,2013-06-06 22:24:00,
2013-06-06 18:29:00,74.8,71.4,29.59,South,182,2.7,2.7,89,0.04,,---,1.50,VWS V14.01,2013-06-06 22:29:00,
2013-06-06 18:34:00,74.5,71.7,29.59,ENE,73,0.0,0.0,91,0.04,,---,1.50,VWS V14.01,2013-06-06 22:34:00,
2013-06-06 18:39:00,74.3,72.5,29.59,SSE,163,4.9,8.3,94,0.04,,---,1.50,VWS V14.01,2013-06-06 22:39:00,
2013-06-06 18:44:00,74.1,72.6,29.59,SSW,209,3.6,8.1,95,0.04,,---,1.50,VWS V14.01,2013-06-06 22:44:00,
2013-06-06 18:49:00,74.1,72.9,29.59,South,177,2.7,3.6,96,0.04,,---,1.50,VWS V14.01,2013-06-06 22:49:00,
2013-06-06 18:54:00,74.1,72.9,29.59,West,280,2.7,2.7,96,0.04,,---,1.50,VWS V14.01,2013-06-06 22:54:00,
2013-06-06 18:59:00,74.1,73.2,29.56,SSE,162,2.7,2.7,97,0.04,,---,1.50,VWS V14.01,2013-06-06 22:59:00,
2013-06-06 19:04:00,74.1,73.2,29.56,SSE,154,2.7,2.7,97,0.04,,---,1.50,VWS V14.01,2013-06-06 23:04:00,
2013-06-06 19:09:00,74.1,73.2,29.56,WSW,248,2.7,2.7,97,0.04,,---,1.50,VWS V14.01,2013-06-06 23:09:00,
2013-06-06 19:14:00,74.3,73.4,29.56,SSW,202,5.8,7.6,97,0.04,,---,1.50,VWS V14.01,2013-06-06 23:14:00,
2013-06-06 19:19:00,74.3,73.4,29.56,ESE,108,0.0,2.7,97,0.04,,---,1.50,VWS V14.01,2013-06-06 23:19:00,
2013-06-06 19:24:00,74.3,73.4,29.56,ESE,105,3.6,3.6,97,0.04,,---,1.50,VWS V14.01,2013-06-06 23:24:00,
2013-06-06 19:29:00,74.3,73.4,29.56,SE,129,6.3,6.3,97,0.00,,---,1.50,VWS V14.01,2013-06-06 23:29:00,
2013-06-06 19:34:00,74.3,73.4,29.56,South,179,0.0,0.0,97,0.00,,---,1.50,VWS V14.01,2013-06-06 23:34:00,
2013-06-06 19:39:00,74.3,73.4,29.56,SW,232,0.0,0.0,97,0.00,,---,1.50,VWS V14.01,2013-06-06 23:39:00,
2013-06-06 19:44:00,74.3,73.4,29.56,East,93,3.1,3.1,97,0.00,,---,1.50,VWS V14.01,2013-06-06 23:44:00,
2013-06-06 19:49:00,74.3,73.4,29.56,WNW,298,3.6,3.6,97,0.00,,---,1.50,VWS V14.01,2013-06-06 23:49:00,
2013-06-06 19:54:00,74.1,73.2,29.56,South,177,0.0,4.0,97,0.00,,---,1.50,VWS V14.01,2013-06-06 23:54:00,
2013-06-06 19:59:00,74.1,73.2,29.56,SSE,150,0.0,2.2,97,0.00,,---,1.50,VWS V14.01,2013-06-06 23:59:00,
2013-06-06 20:04:00,74.1,72.6,29.56,SSW,213,0.0,0.0,95,0.00,,---,1.50,VWS V14.01,2013-06-07 00:04:00,
2013-06-06 20:09:00,73.9,72.1,29.56,South,172,0.0,2.2,94,0.00,,---,1.50,VWS V14.01,2013-06-07 00:09:00,
2013-06-06 20:14:00,73.9,71.8,29.56,WSW,243,0.0,3.1,93,0.00,,---,1.50,VWS V14.01,2013-06-07 00:14:00,
2013-06-06 20:19:00,73.8,71.6,29.56,WSW,250,0.0,4.9,93,0.00,,---,1.50,VWS V14.01,2013-06-07 00:19:00,
2013-06-06 20:24:00,73.8,71.0,29.56,SSE,153,5.8,8.3,91,0.00,,---,1.50,VWS V14.01,2013-06-07 00:24:00,
2013-06-06 20:29:00,73.6,70.8,29.56,South,170,2.7,8.7,91,0.00,,---,1.50,VWS V14.01,2013-06-07 00:29:00,
2013-06-06 20:34:00,73.4,70.3,29.56,South,184,5.4,5.8,90,0.00,,---,1.50,VWS V14.01,2013-06-07 00:34:00,
2013-06-06 20:39:00,73.4,70.6,29.56,WSW,246,11.0,11.0,91,0.00,,---,1.50,VWS V14.01,2013-06-07 00:39:00,
2013-06-06 20:44:00,73.4,70.9,29.59,SSW,213,3.1,4.9,92,0.00,,---,1.50,VWS V14.01,2013-06-07 00:44:00,
2013-06-06 20:49:00,73.4,70.9,29.59,SSE,163,5.8,5.8,92,0.00,,---,1.50,VWS V14.01,2013-06-07 00:49:00,
2013-06-06 20:54:00,73.4,71.3,29.59,WSW,257,6.7,6.7,93,0.00,,---,1.50,VWS V14.01,2013-06-07 00:54:00,
2013-06-06 20:59:00,73.2,71.1,29.56,SE,138,2.7,5.8,93,0.00,,---,1.50,VWS V14.01,2013-06-07 00:59:00,
2013-06-06 21:04:00,73.0,71.2,29.56,WNW,282,3.6,12.3,94,0.00,,---,1.50,VWS V14.01,2013-06-07 01:04:00,
2013-06-06 21:09:00,73.0,71.5,29.56,East,97,4.9,4.9,95,0.00,,---,1.50,VWS V14.01,2013-06-07 01:09:00,
2013-06-06 21:14:00,73.0,71.8,29.56,ESE,119,4.0,5.8,96,0.00,,---,1.50,VWS V14.01,2013-06-07 01:14:00,
2013-06-06 21:19:00,73.0,72.1,29.56,SE,143,3.6,8.1,97,0.00,,---,1.50,VWS V14.01,2013-06-07 01:19:00,
2013-06-06 21:24:00,73.0,72.1,29.56,SW,234,4.0,4.0,97,0.00,,---,1.50,VWS V14.01,2013-06-07 01:24:00,
2013-06-06 21:29:00,73.0,71.8,29.56,SSW,195,6.3,6.3,96,0.00,,---,1.50,VWS V14.01,2013-06-07 01:29:00,
2013-06-06 21:34:00,73.0,71.8,29.56,South,184,7.6,7.6,96,0.00,,---,1.50,VWS V14.01,2013-06-07 01:34:00,
2013-06-06 21:39:00,73.0,71.8,29.56,SSW,192,5.8,14.5,96,0.00,,---,1.50,VWS V14.01,2013-06-07 01:39:00,
2013-06-06 21:44:00,73.2,71.7,29.59,South,172,6.3,6.3,95,0.00,,---,1.50,VWS V14.01,2013-06-07 01:44:00,
2013-06-06 21:49:00,73.0,71.5,29.59,SSW,209,4.9,5.8,95,0.00,,---,1.50,VWS V14.01,2013-06-07 01:49:00,
2013-06-06 21:54:00,73.0,71.8,29.59,SW,227,4.0,5.8,96,0.00,,---,1.50,VWS V14.01,2013-06-07 01:54:00,
2013-06-06 21:59:00,73.0,71.8,29.59,South,189,3.1,6.3,96,0.00,,---,1.50,VWS V14.01,2013-06-07 01:59:00,
2013-06-06 22:04:00,73.0,72.1,29.59,SW,222,2.7,7.6,97,0.00,,---,1.50,VWS V14.01,2013-06-07 02:04:00,
2013-06-06 22:09:00,73.0,72.1,29.59,SSE,155,8.1,10.1,97,0.00,,---,1.50,VWS V14.01,2013-06-07 02:09:00,
2013-06-06 22:14:00,73.0,72.4,29.59,SSW,205,5.8,7.6,98,0.00,,---,1.50,VWS V14.01,2013-06-07 02:14:00,
2013-06-06 22:19:00,73.0,72.8,29.59,SSW,206,3.1,5.4,99,0.00,,---,1.50,VWS V14.01,2013-06-07 02:19:00,
2013-06-06 22:24:00,73.0,72.8,29.59,North,10,3.6,3.6,99,0.00,,---,1.50,VWS V14.01,2013-06-07 02:24:00,
2013-06-06 22:29:00,73.0,72.8,29.62,SSW,201,5.8,11.4,99,0.00,,---,1.50,VWS V14.01,2013-06-07 02:29:00,
2013-06-06 22:34:00,73.2,73.2,29.62,SE,143,6.3,6.3,100,0.00,,---,1.50,VWS V14.01,2013-06-07 02:34:00,
2013-06-06 22:39:00,73.2,73.2,29.62,SSE,150,3.1,8.3,100,0.00,,---,1.50,VWS V14.01,2013-06-07 02:39:00,
2013-06-06 22:44:00,73.2,73.2,29.62,SW,218,4.9,8.1,100,0.00,,---,1.50,VWS V14.01,2013-06-07 02:44:00,
2013-06-06 22:49:00,73.2,73.2,29.62,SSW,199,4.5,4.5,100,0.00,,---,1.50,VWS V14.01,2013-06-07 02:49:00,
2013-06-06 22:54:00,73.4,73.4,29.62,SE,128,3.1,4.0,100,0.00,,---,1.50,VWS V14.01,2013-06-07 02:54:00,
2013-06-06 22:59:00,73.4,73.4,29.62,SW,218,6.7,6.7,100,0.00,,---,1.50,VWS V14.01,2013-06-07 02:59:00,
2013-06-06 23:04:00,73.6,73.6,29.62,SSW,196,11.0,11.0,100,0.00,,---,1.50,VWS V14.01,2013-06-07 03:04:00,
2013-06-06 23:09:00,73.6,73.6,29.62,South,184,3.6,5.4,100,0.00,,---,1.50,VWS V14.01,2013-06-07 03:09:00,
2013-06-06 23:14:00,73.6,73.6,29.65,South,182,5.4,5.4,100,0.00,,---,1.50,VWS V14.01,2013-06-07 03:14:00,
2013-06-06 23:19:00,73.6,73.6,29.65,SSW,211,3.1,5.8,100,0.00,,---,1.50,VWS V14.01,2013-06-07 03:19:00,
2013-06-06 23:24:00,73.4,73.4,29.65,South,182,4.0,4.0,100,0.04,,---,1.54,VWS V14.01,2013-06-07 03:24:00,
2013-06-06 23:29:00,73.6,73.6,29.65,SW,214,3.1,5.4,100,0.04,,---,1.54,VWS V14.01,2013-06-07 03:29:00,
2013-06-06 23:34:00,73.4,73.4,29.65,SSW,198,0.0,7.6,100,0.04,,---,1.54,VWS V14.01,2013-06-07 03:34:00,
2013-06-06 23:39:00,73.6,73.6,29.65,SW,215,3.1,5.8,100,0.04,,---,1.54,VWS V14.01,2013-06-07 03:39:00,
2013-06-06 23:44:00,73.6,73.6,29.65,South,177,3.1,3.1,100,0.04,,---,1.54,VWS V14.01,2013-06-07 03:44:00,
2013-06-06 23:49:00,73.8,73.8,29.65,SSW,205,8.3,9.2,100,0.04,,---,1.54,VWS V14.01,2013-06-07 03:49:00,
2013-06-06 23:54:00,73.8,73.8,29.65,SSW,205,2.7,3.1,100,0.04,,---,1.54,VWS V14.01,2013-06-07 03:54:00,
2013-06-06 23:59:00,73.8,73.8,29.65,SW,228,0.0,3.1,100,0.04,,---,1.54,VWS V14.01,2013-06-07 03:59:00,